Sioux Lookout, Ontario

10:52 AM CST on January 24, 2017 (GMT -0600)
Sioux Lookout

Weather History for CYXL - January, 2013

Change the Weather History Date:

Monday, January 7, 2013

  Actual Average Record
Temperature  
Mean Temperature 18 °F -  
Max Temperature 28 °F 28 °F 42 °F (2003)
Min Temperature 8 °F 14 °F -23 °F (2015)
Degree Days  
Heating Degree Days 47    
Moisture  
Dew Point 15 °F    
Average Humidity 79    
Maximum Humidity 86    
Minimum Humidity 64    
Precipitation  
Precipitation 0.04 in 0.08 in - ()
Sea Level Pressure  
Sea Level Pressure 29.63 in    
Wind  
Wind Speed 12 mph ()    
Max Wind Speed 25 mph    
Max Gust Speed 39 mph    
Visibility 10.2 miles    
Events Snow    
Averages and records for this station are not official NWS values.
T = Trace of Precipitation, MM = Missing Value Source: Averaged Metar Reports

Daily Weather History Graph

Daily Weather History Graph

Search for Another Location

Airport or City:

Trip Planner

Search our weather history database for the weather conditions in past years. The results will help you decide how hot, cold, wet, or windy it might be!

Date:

Astronomy

Jan. 07, 2013 Rise Set
Actual Time 8:05 AM CST 4:23 PM CST
Civil Twilight 7:27 AM CST 5:01 PM CST
Nautical Twilight 6:46 AM CST 5:42 PM CST
Astronomical Twilight 6:07 AM CST 6:21 PM CST
Moon 3:22 AM CST (1/7) 12:39 PM CST (1/7)
Length of Visible Light 9h 33m
Length of Day
8h 18m
Waning Crescent, 22% of the Moon is Illuminated
Jan 7
Waning Crescent
Jan 11
New
Jan 18
First Quarter
Jan 26
Full
Feb 3
Last Quarter

Hourly Weather History & Observations

Time (CST) Temp. Windchill Dew Point Humidity Pressure Visibility Wind Dir Wind Speed Gust Speed Precip Events Conditions
12:00 AM 15 °F - 9 °F 67% 29.82 in 15 mi SSE 8.1 mph - -   Overcast
12:00 AM 15.8 °F 5.1 °F 8.6 °F 73% 29.82 in 15.0 mi SSE 8.1 mph - N/A   Overcast
1:00 AM 15.8 °F 2.7 °F 10.4 °F 79% 29.78 in 15.0 mi South 11.5 mph - N/A   Overcast
2:00 AM 17.6 °F 3.7 °F 12.2 °F 79% 29.72 in 15.0 mi South 13.8 mph - N/A   Overcast
3:00 AM 19.4 °F 5.5 °F 14.0 °F 80% 29.65 in 15.0 mi South 15.0 mph 21.9 mph N/A   Overcast
4:00 AM 19.4 °F 5.5 °F 14.0 °F 80% 29.61 in 15.0 mi South 15.0 mph 24.2 mph N/A   Overcast
4:14 AM - - - N/A% - 15.0 mi South 13.8 mph 24.2 mph N/A   Unknown
5:00 AM 19.4 °F 6.6 °F 15.8 °F 86% 29.59 in 15.0 mi SSW 12.7 mph 23.0 mph N/A Snow Light Snow
6:00 AM 20 °F - 15 °F 75% 29.55 in 15 mi SSW 13.8 mph - - Snow Light Snow
6:00 AM 19.4 °F 6.6 °F 15.8 °F 86% 29.55 in 15.0 mi SSW 12.7 mph 21.9 mph N/A Snow Light Snow
7:00 AM 19.4 °F 7.2 °F 15.8 °F 86% 29.54 in 15.0 mi SSW 11.5 mph 18.4 mph N/A Snow Light Snow
8:00 AM 21.2 °F 9.5 °F 17.6 °F 86% 29.52 in 15.0 mi SSW 11.5 mph 20.7 mph N/A Snow Light Snow
8:54 AM - - - N/A% - 5.0 mi SSW 16.1 mph 21.9 mph N/A   Light Freezing Drizzle
9:50 AM - - - N/A% - 15.0 mi SW 13.8 mph 19.6 mph N/A   Overcast
10:00 AM 23.0 °F 9.6 °F 19.4 °F 86% 29.49 in 10.0 mi SSW 16.1 mph 21.9 mph N/A Snow Light Snow
12:00 PM 25 °F - 21 °F 80% 29.44 in 6 mi SW 13.8 mph - - Snow Light Snow
12:00 PM 24.8 °F 12.9 °F 21.2 °F 86% 29.44 in 6.0 mi SW 13.8 mph 21.9 mph N/A Snow Light Snow
1:00 PM 26.6 °F 14.7 °F 23.0 °F 86% 29.43 in 8.0 mi WSW 15.0 mph 21.9 mph N/A Snow Light Snow
1:17 PM - - - N/A% - 1.2 mi WSW 16.1 mph 25.3 mph N/A   Unknown
1:31 PM - - - N/A% - 0.8 mi WSW 13.8 mph 26.5 mph N/A   Unknown
1:36 PM - - - N/A% - 0.5 mi West 13.8 mph 26.5 mph N/A   Unknown
1:42 PM - - - N/A% - 0.2 mi West 25.3 mph 39.1 mph N/A   Unknown
2:00 PM 24.8 °F 10.3 °F 19.4 °F 80% 29.48 in 5.0 mi West 20.7 mph 34.5 mph N/A Snow Light Snow
3:00 PM 24.8 °F 11.9 °F 15.8 °F 69% 29.54 in 10.0 mi West 16.1 mph 25.3 mph N/A Snow Light Snow Showers
3:47 PM - - - N/A% - 1.5 mi West 13.8 mph 23.0 mph N/A   Unknown
4:00 PM 23.0 °F 9.2 °F 17.6 °F 80% 29.57 in 2.0 mi WNW 17.3 mph - N/A Snow Light Snow Showers
4:27 PM - - - N/A% - 8.0 mi NW 20.7 mph 32.2 mph N/A   Unknown
5:00 PM 21.2 °F 6.0 °F 14.0 °F 74% 29.63 in 10.0 mi WNW 19.6 mph 26.5 mph N/A Snow Light Snow Showers
6:00 PM 20 °F - 13 °F 64% 29.69 in 10 mi WNW 15.0 mph - - Snow Light Snow Showers
6:00 PM 21.2 °F 8.9 °F 14.0 °F 74% 29.69 in 10.0 mi WNW 12.7 mph 23.0 mph N/A Snow Light Snow Showers
7:00 PM 19.4 °F 7.2 °F 14.0 °F 80% 29.73 in 12.0 mi NW 11.5 mph 19.6 mph N/A Snow Light Snow Showers
8:00 PM 17.6 °F 3.7 °F 12.2 °F 79% 29.76 in 12.0 mi NW 13.8 mph 19.6 mph N/A Snow Light Snow Showers
9:00 PM 17.6 °F 5.7 °F 12.2 °F 79% 29.79 in 15.0 mi NW 10.4 mph - N/A Snow Light Snow
10:00 PM 15.8 °F 5.1 °F 10.4 °F 79% 29.82 in 15.0 mi WNW 8.1 mph - N/A Snow Light Snow
11:00 PM 15.8 °F 4.2 °F 10.4 °F 79% 29.84 in 15.0 mi West 9.2 mph - N/A Snow Light Snow